N869KN TTCP-TGPY

Flight info

Callsign N869KN
Flight time N/A
Altitude 9000
Route VODAN DCT DEBOP DCT TASRU/N0183F080 DCT ELTUN DCT DASEN DCT KAPAM DCT IMOXI
Aircraft DA42/L-SBDGRY/S

Departure

Time N/A
Airport A.N.R. Robinson International Airport (TTCP)

Arrival

Time 2026-05-04 01:57
Airport Maurice Bishop International Airport (TGPY)
Time Latitude Longitude Altitude Speed Heading
2026-05-04 01:49 11.89468 -61.95218 3731 ft 180 kts 301°
2026-05-04 01:50 11.90194 -61.96251 3267 ft 177 kts 322°
2026-05-04 01:50 11.91198 -61.96886 2908 ft 160 kts 348°
2026-05-04 01:50 11.92211 -61.97085 2841 ft 145 kts
2026-05-04 01:50 11.93230 -61.97084 2740 ft 153 kts
2026-05-04 01:51 11.94326 -61.97077 2599 ft 158 kts
2026-05-04 01:51 11.95421 -61.97071 2477 ft 160 kts
2026-05-04 01:51 11.96542 -61.97066 2345 ft 161 kts
2026-05-04 01:51 11.97655 -61.97061 2238 ft 159 kts
2026-05-04 01:52 11.98708 -61.96846 2118 ft 151 kts 28°
2026-05-04 01:52 11.99572 -61.96283 2008 ft 145 kts 48°
2026-05-04 01:52 12.00160 -61.95491 2007 ft 138 kts 64°
2026-05-04 01:52 12.00450 -61.94582 2008 ft 135 kts 81°
2026-05-04 01:53 12.00481 -61.93623 2012 ft 135 kts 89°
2026-05-04 01:53 12.00478 -61.92658 2013 ft 135 kts 90°
2026-05-04 01:53 12.00473 -61.91694 1962 ft 136 kts 89°
2026-05-04 01:53 12.00468 -61.90716 1886 ft 138 kts 89°
2026-05-04 01:54 12.00463 -61.89728 1813 ft 139 kts 89°
2026-05-04 01:54 12.00457 -61.88738 1661 ft 139 kts 89°
2026-05-04 01:54 12.00452 -61.87771 1478 ft 133 kts 89°
2026-05-04 01:54 12.00447 -61.86849 1308 ft 127 kts 90°
2026-05-04 01:55 12.00444 -61.85959 1142 ft 124 kts 92°
2026-05-04 01:55 12.00439 -61.85069 984 ft 127 kts 91°
2026-05-04 01:55 12.00434 -61.84165 824 ft 125 kts 90°
2026-05-04 01:55 12.00430 -61.83312 674 ft 116 kts 90°
2026-05-04 01:56 12.00427 -61.82528 534 ft 108 kts 92°
2026-05-04 01:56 12.00423 -61.81862 398 ft 75 kts 91°
2026-05-04 01:56 12.00423 -61.81400 301 ft 62 kts 88°
2026-05-04 01:56 12.00423 -61.80932 243 ft 68 kts 88°
2026-05-04 01:57 12.00420 -61.80426 141 ft 75 kts 91°
2026-05-04 01:57 12.00417 -61.79910 90 ft 72 kts 91°
2026-05-04 01:57 12.00416 -61.79426 69 ft 63 kts 93°
2026-05-04 01:57 12.00412 -61.79009 60 ft 48 kts 91°
2026-05-04 01:58 12.00410 -61.78806 59 ft 19 kts 92°
2026-05-04 01:58 12.00408 -61.78690 59 ft 14 kts 92°
2026-05-04 01:58 12.00431 -61.78598 58 ft 13 kts 30°
2026-05-04 01:58 12.00521 -61.78598 65 ft 10 kts
2026-05-04 01:59 12.00530 -61.78598 65 ft 4 kts 359°
2026-05-04 01:59 12.00558 -61.78600 62 ft 7 kts 326°
2026-05-04 01:59 12.00565 -61.78704 67 ft 16 kts 276°
2026-05-04 01:59 12.00580 -61.78732 66 ft 0 kts 359°
2026-05-04 02:01 12.00598 -61.78732 66 ft 15 kts
2026-05-04 02:01 12.00609 -61.78647 65 ft 16 kts 121°
2026-05-04 02:02 12.00552 -61.78600 66 ft 8 kts 197°
2026-05-04 02:02 12.00567 -61.78623 67 ft 6 kts 309°
2026-05-04 02:02 12.00568 -61.78700 67 ft 7 kts 269°
2026-05-04 02:02 12.00584 -61.78726 65 ft 8 kts 246°
2026-05-04 02:03 12.00595 -61.78727 66 ft 7 kts 360°
2026-05-04 02:03 12.00619 -61.78729 64 ft 7 kts 80°
2026-05-04 02:03 12.00638 -61.78732 66 ft 7 kts 309°
2026-05-04 02:03 12.00644 -61.78739 64 ft 0 kts 309°